When you browse on this site, cookies collect data to enhance your experience and personalize the content and advertising you see.
Visit our Privacy Policy to learn more. By continuing to use the site, you agree to this use of cookies and data.
  • In Schweiz
  • Länderverzeichnis
  • Für 7 Tage
  • Wassertemperatur
  • Wetterkarte
  • Widgets
  • user-avatar
    Anmelden

    Stündliche Wetter Bern

    Heute, 29 Januar, Mittwoch

    Zeit Temperatur Niederschläge Wind Luftdruck Luftfeuchtigkeit
    00:00 +2°C° 0 mm 6 m/S 709 mmHg 94%
    01:00 +1°C° 0.9 mm 6 m/S 709 mmHg 94%
    02:00 +1°C° 0.9 mm 5 m/S 709 mmHg 94%
    03:00 +1°C° 0.9 mm 5 m/S 710 mmHg 94%
    04:00 +1°C° 1.2 mm 4 m/S 710 mmHg 94%
    05:00 +1°C° 1.2 mm 4 m/S 711 mmHg 93%
    06:00 +2°C° 0 mm 3 m/S 711 mmHg 94%
    07:00 +1°C° 0.6 mm 4 m/S 711 mmHg 94%
    08:00 +1°C° 0.6 mm 4 m/S 712 mmHg 93%
    09:00 +3°C° 0.6 mm 4 m/S 712 mmHg 93%
    10:00 +3°C° 0.6 mm 4 m/S 712 mmHg 93%
    11:00 +3°C° 0.6 mm 4 m/S 712 mmHg 94%
    12:00 +2°C° 0 mm 5 m/S 713 mmHg 96%
    13:00 +2°C° 0.6 mm 5 m/S 713 mmHg 96%
    14:00 +3°C° 0.6 mm 4 m/S 713 mmHg 95%
    15:00 +3°C° 0.6 mm 4 m/S 713 mmHg 95%
    16:00 +3°C° 0.5 mm 3 m/S 714 mmHg 95%
    17:00 +3°C° 0.5 mm 3 m/S 715 mmHg 94%
    18:00 +3°C° 0.5 mm 3 m/S 715 mmHg 94%
    19:00 +2°C° 0 mm 3 m/S 716 mmHg 94%
    20:00 +2°C° 0 mm 3 m/S 716 mmHg 93%
    21:00 +2°C° 0 mm 2 m/S 716 mmHg 93%
    22:00 +2°C° 0 mm 2 m/S 716 mmHg 92%
    23:00 +2°C° 0 mm 2 m/S 716 mmHg 90%

    Morgen, 30 Januar, Donnerstag

    Zeit Temperatur Niederschläge Wind Luftdruck Luftfeuchtigkeit
    00:00 +2°C° 0 mm 2 m/S 717 mmHg 89%
    01:00 +1°C° 0 mm 2 m/S 716 mmHg 87%
    02:00 +1°C° 0 mm 2 m/S 716 mmHg 86%
    03:00 +2°C° 0 mm 1 m/S 715 mmHg 84%
    04:00 +3°C° 0 mm 1 m/S 715 mmHg 82%
    05:00 +3°C° 0 mm 1 m/S 715 mmHg 81%
    06:00 +3°C° 0 mm 1 m/S 715 mmHg 79%
    07:00 +4°C° 0 mm 1 m/S 715 mmHg 78%
    08:00 +5°C° 0 mm 1 m/S 714 mmHg 77%
    09:00 +5°C° 0 mm 1 m/S 714 mmHg 76%
    10:00 +7°C° 0 mm 1 m/S 714 mmHg 76%
    11:00 +7°C° 0 mm 2 m/S 714 mmHg 75%
    12:00 +8°C° 0 mm 2 m/S 713 mmHg 75%
    13:00 +8°C° 0.1 mm 2 m/S 713 mmHg 78%
    14:00 +7°C° 0.1 mm 3 m/S 713 mmHg 81%
    15:00 +7°C° 0.1 mm 3 m/S 712 mmHg 85%
    16:00 +7°C° 1.1 mm 3 m/S 713 mmHg 88%
    17:00 +7°C° 1.1 mm 3 m/S 713 mmHg 91%
    18:00 +5°C° 1.1 mm 3 m/S 713 mmHg 94%
    19:00 +7°C° 0.6 mm 3 m/S 713 mmHg 94%
    20:00 +7°C° 0.6 mm 3 m/S 713 mmHg 95%
    21:00 +7°C° 0.6 mm 3 m/S 713 mmHg 95%
    22:00 +8°C° 0.6 mm 3 m/S 714 mmHg 95%
    23:00 +8°C° 0.6 mm 3 m/S 714 mmHg 95%

    übermorgen, 31 Januar, Freitag

    Zeit Temperatur Niederschläge Wind Luftdruck Luftfeuchtigkeit
    00:00 +8°C° 0.6 mm 3 m/S 714 mmHg 95%
    01:00 +8°C° 0.3 mm 3 m/S 714 mmHg 95%
    02:00 +8°C° 0.3 mm 3 m/S 714 mmHg 94%
    03:00 +8°C° 0.3 mm 3 m/S 714 mmHg 94%
    04:00 +8°C° 0.1 mm 2 m/S 714 mmHg 94%
    05:00 +8°C° 0.1 mm 2 m/S 714 mmHg 93%
    06:00 +8°C° 0.1 mm 2 m/S 714 mmHg 93%
    07:00 +8°C° 0.1 mm 2 m/S 714 mmHg 93%
    08:00 +8°C° 0.1 mm 2 m/S 715 mmHg 93%
    09:00 +9°C° 0.1 mm 2 m/S 715 mmHg 93%
    10:00 +10°C° 0 mm 2 m/S 715 mmHg 91%
    11:00 +10°C° 0 mm 2 m/S 715 mmHg 90%
    12:00 +12°C° 0 mm 2 m/S 715 mmHg 88%
    13:00 +12°C° 0 mm 2 m/S 715 mmHg 89%
    14:00 +12°C° 0 mm 2 m/S 715 mmHg 90%
    15:00 +12°C° 0 mm 2 m/S 714 mmHg 91%
    16:00 +10°C° 0 mm 2 m/S 714 mmHg 91%
    17:00 +9°C° 0 mm 2 m/S 714 mmHg 92%
    18:00 +8°C° 0 mm 2 m/S 714 mmHg 93%
    19:00 +7°C° 0 mm 2 m/S 715 mmHg 92%
    20:00 +7°C° 0 mm 2 m/S 715 mmHg 90%
    21:00 +7°C° 0 mm 2 m/S 715 mmHg 89%
    22:00 +7°C° 0 mm 2 m/S 715 mmHg 89%
    23:00 +7°C° 0 mm 2 m/S 714 mmHg 89%

    1 Februar, Samstag

    Zeit Temperatur Niederschläge Wind Luftdruck Luftfeuchtigkeit
    00:00 +6°C° 0 mm 2 m/S 714 mmHg 89%
    01:00 +6°C° 0 mm 2 m/S 714 mmHg 89%
    02:00 +6°C° 0 mm 2 m/S 714 mmHg 88%
    03:00 +6°C° 0 mm 2 m/S 713 mmHg 88%
    04:00 +6°C° 0 mm 2 m/S 713 mmHg 88%
    05:00 +6°C° 0 mm 2 m/S 713 mmHg 87%
    06:00 +6°C° 0 mm 2 m/S 713 mmHg 87%
    07:00 +7°C° 0.1 mm 2 m/S 713 mmHg 86%
    08:00 +7°C° 0.1 mm 3 m/S 713 mmHg 85%
    09:00 +8°C° 0.1 mm 3 m/S 713 mmHg 85%
    10:00 +8°C° 0.7 mm 3 m/S 713 mmHg 86%
    11:00 +8°C° 0.7 mm 4 m/S 713 mmHg 88%
    12:00 +8°C° 0.7 mm 4 m/S 713 mmHg 89%
    13:00 +8°C° 0.3 mm 4 m/S 713 mmHg 88%
    14:00 +9°C° 0.3 mm 5 m/S 713 mmHg 86%
    15:00 +9°C° 0.3 mm 5 m/S 713 mmHg 85%
    16:00 +9°C° 0.6 mm 5 m/S 713 mmHg 86%
    17:00 +9°C° 0.6 mm 5 m/S 714 mmHg 87%
    18:00 +9°C° 0.6 mm 5 m/S 714 mmHg 88%
    19:00 +8°C° 0.5 mm 5 m/S 715 mmHg 88%
    20:00 +8°C° 0.5 mm 4 m/S 716 mmHg 89%
    21:00 +7°C° 0.5 mm 4 m/S 716 mmHg 89%
    22:00 +7°C° 0.1 mm 4 m/S 717 mmHg 90%
    23:00 +6°C° 0.1 mm 4 m/S 717 mmHg 90%

    2 Februar, Sonntag

    Zeit Temperatur Niederschläge Wind Luftdruck Luftfeuchtigkeit
    00:00 +6°C° 0.1 mm 4 m/S 717 mmHg 91%
    01:00 +7°C° 0 mm 3 m/S 717 mmHg 90%
    02:00 +7°C° 0 mm 3 m/S 717 mmHg 89%
    03:00 +5°C° 0 mm 3 m/S 717 mmHg 88%
    04:00 +5°C° 0 mm 3 m/S 717 mmHg 87%
    05:00 +5°C° 0 mm 3 m/S 717 mmHg 85%
    06:00 +5°C° 0 mm 3 m/S 717 mmHg 84%
    07:00 +7°C° 0 mm 3 m/S 717 mmHg 81%
    08:00 +8°C° 0 mm 3 m/S 717 mmHg 79%
    09:00 +8°C° 0 mm 3 m/S 717 mmHg 76%
    10:00 +8°C° 0.5 mm 3 m/S 717 mmHg 80%
    11:00 +7°C° 0.5 mm 4 m/S 716 mmHg 84%
    12:00 +7°C° 0.5 mm 4 m/S 716 mmHg 88%
    13:00 +8°C° 1.6 mm 4 m/S 716 mmHg 89%
    14:00 +8°C° 1.6 mm 5 m/S 716 mmHg 90%
    15:00 +9°C° 1.6 mm 5 m/S 716 mmHg 91%
    16:00 +9°C° 1.7 mm 5 m/S 716 mmHg 92%
    17:00 +9°C° 1.7 mm 5 m/S 717 mmHg 92%
    18:00 +9°C° 1.7 mm 5 m/S 717 mmHg 93%
    19:00 +10°C° 1.2 mm 4 m/S 717 mmHg 92%
    20:00 +10°C° 1.2 mm 4 m/S 718 mmHg 91%
    21:00 +10°C° 1.2 mm 4 m/S 718 mmHg 90%
    22:00 +10°C° 0.3 mm 4 m/S 718 mmHg 89%
    23:00 +10°C° 0.3 mm 4 m/S 718 mmHg 88%

    3 Februar, Montag

    Zeit Temperatur Niederschläge Wind Luftdruck Luftfeuchtigkeit
    00:00 +10°C° 0.3 mm 4 m/S 718 mmHg 87%
    01:00 +10°C° 0 mm 4 m/S 718 mmHg 87%
    02:00 +10°C° 0 mm 4 m/S 718 mmHg 87%
    03:00 +10°C° 0 mm 4 m/S 718 mmHg 86%
    04:00 +8°C° 0 mm 4 m/S 718 mmHg 85%
    05:00 +8°C° 0 mm 4 m/S 718 mmHg 85%
    06:00 +8°C° 0 mm 4 m/S 718 mmHg 84%
    07:00 +10°C° 0 mm 3 m/S 718 mmHg 83%
    08:00 +10°C° 0 mm 3 m/S 718 mmHg 81%
    09:00 +11°C° 0 mm 3 m/S 719 mmHg 80%
    10:00 +12°C° 0 mm 3 m/S 719 mmHg 75%
    11:00 +13°C° 0 mm 3 m/S 718 mmHg 70%
    12:00 +16°C° 0 mm 3 m/S 718 mmHg 66%
    13:00 +14°C° 0 mm 3 m/S 718 mmHg 67%
    14:00 +14°C° 0 mm 3 m/S 718 mmHg 68%
    15:00 +14°C° 0 mm 3 m/S 717 mmHg 69%
    16:00 +13°C° 0 mm 3 m/S 717 mmHg 70%
    17:00 +11°C° 0 mm 3 m/S 717 mmHg 70%
    18:00 +10°C° 0 mm 2 m/S 717 mmHg 71%
    19:00 +10°C° 0 mm 2 m/S 716 mmHg 70%
    20:00 +9°C° 0 mm 2 m/S 716 mmHg 69%
    21:00 +9°C° 0 mm 2 m/S 716 mmHg 68%
    22:00 +9°C° 0 mm 3 m/S 715 mmHg 67%
    23:00 +9°C° 0 mm 3 m/S 715 mmHg 67%
    Mehr zeigen